Terug naar catalogus

STARLINK-37229

ActiefCommunicatieSSO
NORAD 69659·PAYLOAD·🇺🇸 United States

Gelanceerd Jun 21, 2026 vanaf Vandenberg Space Force Base

Loading…

Volgende Passages (komende 24 uur)

TLE

VersSource: CelesTrak SupGP

Epoch: Sep 14, 2026, 22:40 UTC

1 69659C 26143L   26257.94493056  .00017291  00000+0  53680-3 0  2574
2 69659  97.2835 301.1586 0001080  98.4846  41.0978 15.33427709    14

Volg STARLINK-37229 in realtime met AllMySat

Download on the App Store